If you wish to contribute or participate in the discussions about articles you are invited to join SKYbrary as a registered user

 Actions

Toul Rosières Air Base

From SKYbrary Wiki

LFSL
Airport
ICAO: LFSL – IATA: BVE
Summary
Name Toul Rosières Air Base
Region Europe
Territory France FR.gif
Location , Lorraine
Serving Brive
Elevation 285.293 m
936 ft
936 ft285.293 m
Type small airport
Coordinates 45° 9' 3.00" N, 1° 28' 9.00" E
Runways
Designator Length Width Surface ROPS


METAR
Observation LFSL 110430Z AUTO 13004KT CAVOK 04/01 Q1017 TEMPO 2000 RA OVC004
Station Toul / Rosieres
Date/Time 11 December 2019 04:30:00
Wind direction 130°
Wind speed 04 kts
Lowest cloud amount overcast
Temperature 4°C
Dew point 1°C
Humidity 80%
QNH 1017 hPa
Weather condition n/a